Time,TemperatureF,DewpointF,PressureIn,WindDirection,WindDirectionDegrees,WindSpeedMPH,WindSpeedGustMPH,Humidity,HourlyPrecipIn,Conditions,Clouds,dailyrainin,SoftwareType,DateUTC
2013-02-28 00:08:00,32.7,32.7,29.59,NNW,343,3.0,3.0,100,0.00,,,0.00,Wunderground v.1.15,2013-02-28 05:08:00,
2013-02-28 00:17:00,32.7,32.7,29.59,NNW,341,3.0,3.0,100,0.00,,,0.00,Wunderground v.1.15,2013-02-28 05:17:00,
2013-02-28 00:28:00,32.7,32.7,29.59,North,355,3.0,3.0,100,0.00,,,0.00,Wunderground v.1.15,2013-02-28 05:28:00,
2013-02-28 00:38:00,32.7,32.7,29.59,NNW,338,4.0,4.0,100,0.00,,,0.00,Wunderground v.1.15,2013-02-28 05:38:00,
2013-02-28 00:47:00,32.7,32.7,29.59,North,360,3.0,3.0,100,0.00,,,0.00,Wunderground v.1.15,2013-02-28 05:47:00,
2013-02-28 00:58:00,32.7,32.7,29.59,NNW,338,3.0,3.0,100,0.00,,,0.00,Wunderground v.1.15,2013-02-28 05:58:00,
2013-02-28 01:07:00,32.7,32.7,29.59,NNW,348,3.0,3.0,100,0.00,,,0.00,Wunderground v.1.15,2013-02-28 06:07:00,
2013-02-28 01:18:00,32.7,32.7,29.59,NNW,330,3.0,3.0,100,0.00,,,0.00,Wunderground v.1.15,2013-02-28 06:18:00,
2013-02-28 01:28:00,32.7,32.7,29.59,North,351,3.0,6.0,100,0.00,,,0.00,Wunderground v.1.15,2013-02-28 06:28:00,
2013-02-28 01:38:00,32.7,32.7,29.59,NNW,344,4.0,4.0,100,0.00,,,0.00,Wunderground v.1.15,2013-02-28 06:38:00,
2013-02-28 01:48:00,32.5,32.5,29.59,North,351,4.0,4.0,100,0.00,,,0.00,Wunderground v.1.15,2013-02-28 06:48:00,
2013-02-28 01:57:00,32.5,32.5,29.60,NNW,336,4.0,4.0,100,0.00,,,0.00,Wunderground v.1.15,2013-02-28 06:57:00,
2013-02-28 02:08:00,32.5,32.5,29.60,North,355,4.0,4.0,100,0.00,,,0.00,Wunderground v.1.15,2013-02-28 07:08:00,
2013-02-28 02:17:00,32.5,32.5,29.60,NNW,346,4.0,4.0,100,0.00,,,0.00,Wunderground v.1.15,2013-02-28 07:17:00,
2013-02-28 02:28:00,32.4,32.4,29.61,NNW,342,4.0,4.0,100,0.00,,,0.00,Wunderground v.1.15,2013-02-28 07:28:00,
2013-02-28 02:38:00,32.4,32.4,29.61,NNW,339,4.0,4.0,100,0.00,,,0.00,Wunderground v.1.15,2013-02-28 07:38:00,
2013-02-28 02:48:00,32.4,32.4,29.61,NNW,338,4.0,4.0,100,0.00,,,0.00,Wunderground v.1.15,2013-02-28 07:48:00,
2013-02-28 02:58:00,32.4,32.4,29.61,NNW,327,4.0,4.0,100,0.00,,,0.00,Wunderground v.1.15,2013-02-28 07:58:00,
2013-02-28 03:07:00,32.2,32.2,29.61,NNW,327,4.0,9.0,100,0.00,,,0.00,Wunderground v.1.15,2013-02-28 08:07:00,
2013-02-28 03:18:00,32.2,32.2,29.61,NNW,341,5.0,5.0,100,0.00,,,0.00,Wunderground v.1.15,2013-02-28 08:18:00,
2013-02-28 03:28:00,32.2,32.2,29.62,NNW,348,4.0,4.0,100,0.00,,,0.01,Wunderground v.1.15,2013-02-28 08:28:00,
2013-02-28 03:37:00,32.2,32.2,29.62,NNW,342,4.0,4.0,100,0.00,,,0.01,Wunderground v.1.15,2013-02-28 08:37:00,
2013-02-28 03:48:00,32.1,32.1,29.62,NNW,339,3.0,5.0,100,0.00,,,0.01,Wunderground v.1.15,2013-02-28 08:48:00,
2013-02-28 03:58:00,32.1,32.1,29.63,North,351,4.0,4.0,100,0.00,,,0.01,Wunderground v.1.15,2013-02-28 08:58:00,
2013-02-28 04:08:00,32.1,32.1,29.63,NNW,336,3.0,5.0,100,0.00,,,0.01,Wunderground v.1.15,2013-02-28 09:08:00,
2013-02-28 04:18:00,32.1,32.1,29.63,NNW,341,5.0,7.0,100,0.00,,,0.01,Wunderground v.1.15,2013-02-28 09:18:00,
2013-02-28 04:28:00,32.1,32.1,29.64,NNW,338,4.0,6.0,100,0.00,,,0.01,Wunderground v.1.15,2013-02-28 09:28:00,
2013-02-28 04:38:00,31.9,31.9,29.64,NNW,338,4.0,4.0,100,0.00,,,0.01,Wunderground v.1.15,2013-02-28 09:38:00,
2013-02-28 04:48:00,31.9,31.9,29.64,NNW,340,4.0,5.0,100,0.00,,,0.01,Wunderground v.1.15,2013-02-28 09:48:00,
2013-02-28 04:58:00,31.9,31.9,29.65,NNW,336,5.0,8.0,100,0.00,,,0.01,Wunderground v.1.15,2013-02-28 09:58:00,
2013-02-28 05:07:00,31.9,31.9,29.65,NNW,335,5.0,6.0,100,0.00,,,0.01,Wunderground v.1.15,2013-02-28 10:07:00,
2013-02-28 05:18:00,31.9,31.9,29.65,NNW,332,4.0,4.0,100,0.00,,,0.01,Wunderground v.1.15,2013-02-28 10:18:00,
2013-02-28 05:28:00,31.9,31.9,29.66,NNW,338,5.0,5.0,100,0.00,,,0.01,Wunderground v.1.15,2013-02-28 10:28:00,
2013-02-28 05:38:00,31.8,31.8,29.66,NNW,340,4.0,5.0,100,0.00,,,0.01,Wunderground v.1.15,2013-02-28 10:38:00,
2013-02-28 05:48:00,31.8,31.8,29.66,NNW,341,4.0,4.0,100,0.00,,,0.01,Wunderground v.1.15,2013-02-28 10:48:00,
2013-02-28 05:58:00,31.8,31.8,29.67,NNW,339,4.0,4.0,100,0.00,,,0.01,Wunderground v.1.15,2013-02-28 10:58:00,
2013-02-28 06:07:00,31.6,31.6,29.67,NNW,339,4.0,4.0,100,0.00,,,0.01,Wunderground v.1.15,2013-02-28 11:07:00,
2013-02-28 06:18:00,31.6,31.6,29.67,NNW,339,4.0,4.0,100,0.00,,,0.01,Wunderground v.1.15,2013-02-28 11:18:00,
2013-02-28 06:28:00,31.6,31.6,29.68,NNW,339,4.0,4.0,100,0.00,,,0.01,Wunderground v.1.15,2013-02-28 11:28:00,
2013-02-28 06:37:00,31.6,31.6,29.68,NNW,339,4.0,4.0,100,0.00,,,0.01,Wunderground v.1.15,2013-02-28 11:37:00,
2013-02-28 06:47:00,31.8,31.8,29.69,NNW,339,4.0,4.0,100,0.00,,,0.01,Wunderground v.1.15,2013-02-28 11:47:00,
2013-02-28 06:58:00,31.8,31.8,29.69,NNW,338,4.0,5.0,100,0.00,,,0.01,Wunderground v.1.15,2013-02-28 11:58:00,
2013-02-28 07:07:00,31.9,31.7,29.69,North,355,5.0,5.0,99,0.00,,,0.01,Wunderground v.1.15,2013-02-28 12:07:00,
2013-02-28 07:18:00,31.9,31.7,29.69,North,350,4.0,4.0,99,0.00,,,0.01,Wunderground v.1.15,2013-02-28 12:18:00,
2013-02-28 07:28:00,31.9,31.7,29.70,NNW,343,4.0,5.0,99,0.00,,,0.01,Wunderground v.1.15,2013-02-28 12:28:00,
2013-02-28 07:38:00,32.1,31.9,29.70,North,350,4.0,4.0,99,0.00,,,0.01,Wunderground v.1.15,2013-02-28 12:38:00,
2013-02-28 07:48:00,32.1,31.9,29.71,NNW,334,5.0,5.0,99,0.00,,,0.01,Wunderground v.1.15,2013-02-28 12:48:00,
2013-02-28 07:58:00,32.2,32.0,29.71,North,9,4.0,6.0,99,0.00,,,0.01,Wunderground v.1.15,2013-02-28 12:58:00,
2013-02-28 08:08:00,32.4,32.2,29.71,NNW,345,5.0,5.0,99,0.00,,,0.01,Wunderground v.1.15,2013-02-28 13:08:00,
2013-02-28 08:18:00,32.4,31.9,29.72,NNW,341,4.0,4.0,98,0.00,,,0.01,Wunderground v.1.15,2013-02-28 13:18:00,
2013-02-28 08:27:00,32.5,32.0,29.73,NNW,342,5.0,5.0,98,0.00,,,0.01,Wunderground v.1.15,2013-02-28 13:27:00,
2013-02-28 08:37:00,32.7,32.2,29.73,NW,319,5.0,7.0,98,0.00,,,0.01,Wunderground v.1.15,2013-02-28 13:37:00,
2013-02-28 08:48:00,32.7,32.2,29.74,NNW,333,5.0,5.0,98,0.00,,,0.01,Wunderground v.1.15,2013-02-28 13:48:00,
2013-02-28 08:58:00,32.9,32.4,29.74,NNW,333,5.0,6.0,98,0.00,,,0.01,Wunderground v.1.15,2013-02-28 13:58:00,
2013-02-28 09:08:00,33.2,32.4,29.74,NNW,332,5.0,5.0,97,0.00,,,0.01,Wunderground v.1.15,2013-02-28 14:08:00,
2013-02-28 09:18:00,33.5,32.7,29.75,NW,325,4.0,6.0,97,0.00,,,0.02,Wunderground v.1.15,2013-02-28 14:18:00,
2013-02-28 09:27:00,33.7,32.7,29.75,NNW,340,5.0,5.0,96,0.00,,,0.02,Wunderground v.1.15,2013-02-28 14:27:00,
2013-02-28 09:38:00,33.8,32.8,29.75,North,360,4.0,4.0,96,0.00,,,0.02,Wunderground v.1.15,2013-02-28 14:38:00,
2013-02-28 09:48:00,33.8,32.5,29.75,North,5,5.0,7.0,95,0.00,,,0.03,Wunderground v.1.15,2013-02-28 14:48:00,
2013-02-28 09:57:00,34.0,32.5,29.76,NNW,338,6.0,6.0,94,0.00,,,0.03,Wunderground v.1.15,2013-02-28 14:57:00,
2013-02-28 10:08:00,34.3,32.5,29.76,NNW,341,5.0,5.0,93,0.00,,,0.03,Wunderground v.1.15,2013-02-28 15:08:00,
2013-02-28 10:17:00,34.3,32.2,29.77,NNW,336,5.0,6.0,92,0.00,,,0.03,Wunderground v.1.15,2013-02-28 15:17:00,
2013-02-28 10:28:00,34.3,31.9,29.77,NNW,330,7.0,7.0,91,0.00,,,0.04,Wunderground v.1.15,2013-02-28 15:28:00,
2013-02-28 10:38:00,34.6,32.0,29.77,NNW,342,6.0,6.0,90,0.00,,,0.04,Wunderground v.1.15,2013-02-28 15:38:00,
2013-02-28 10:48:00,35.0,31.8,29.77,NNW,331,6.0,7.0,88,0.00,,,0.04,Wunderground v.1.15,2013-02-28 15:48:00,
2013-02-28 10:57:00,35.2,31.7,29.78,North,9,6.0,6.0,87,0.00,,,0.05,Wunderground v.1.15,2013-02-28 15:57:00,
2013-02-28 11:08:00,35.5,31.7,29.78,North,5,5.0,5.0,86,0.00,,,0.05,Wunderground v.1.15,2013-02-28 16:08:00,
2013-02-28 11:17:00,35.8,31.4,29.78,NW,307,5.0,7.0,84,0.00,,,0.06,Wunderground v.1.15,2013-02-28 16:17:00,
2013-02-28 11:28:00,35.5,31.1,29.78,NNW,340,6.0,7.0,84,0.00,,,0.06,Wunderground v.1.15,2013-02-28 16:28:00,
2013-02-28 11:38:00,35.9,31.5,29.78,NNW,337,5.0,5.0,84,0.00,,,0.07,Wunderground v.1.15,2013-02-28 16:38:00,
2013-02-28 11:48:00,36.0,31.0,29.79,NNW,342,5.0,6.0,82,0.05,,,0.08,Wunderground v.1.15,2013-02-28 16:48:00,
2013-02-28 11:58:00,36.5,31.2,29.80,NW,315,6.0,7.0,81,0.04,,,0.08,Wunderground v.1.15,2013-02-28 16:58:00,
2013-02-28 12:08:00,36.2,30.9,29.80,NNW,336,7.0,7.0,81,0.04,,,0.09,Wunderground v.1.15,2013-02-28 17:08:00,
2013-02-28 12:18:00,36.3,31.0,29.80,NNW,334,6.0,6.0,81,0.06,,,0.10,Wunderground v.1.15,2013-02-28 17:18:00,
2013-02-28 12:28:00,36.0,30.7,29.80,NNW,336,6.0,6.0,81,0.00,,,0.10,Wunderground v.1.15,2013-02-28 17:28:00,
2013-02-28 12:38:00,35.9,30.6,29.80,NNW,342,6.0,10.0,81,0.00,,,0.11,Wunderground v.1.15,2013-02-28 17:38:00,
2013-02-28 12:48:00,35.6,30.3,29.80,NNW,331,6.0,6.0,81,0.04,,,0.12,Wunderground v.1.15,2013-02-28 17:48:00,
2013-02-28 12:58:00,35.6,30.3,29.80,NNW,339,5.0,5.0,81,0.04,,,0.12,Wunderground v.1.15,2013-02-28 17:58:00,
2013-02-28 13:07:00,35.8,30.5,29.80,NNW,333,5.0,6.0,81,0.00,,,0.12,Wunderground v.1.15,2013-02-28 18:07:00,
2013-02-28 13:18:00,35.9,30.6,29.81,NW,323,4.0,4.0,81,0.00,,,0.13,Wunderground v.1.15,2013-02-28 18:18:00,
2013-02-28 13:28:00,35.8,30.5,29.81,NNW,329,4.0,5.0,81,0.00,,,0.13,Wunderground v.1.15,2013-02-28 18:28:00,
2013-02-28 13:38:00,35.8,30.2,29.81,NNW,344,5.0,5.0,80,0.00,,,0.14,Wunderground v.1.15,2013-02-28 18:38:00,
2013-02-28 13:48:00,35.8,29.9,29.81,NNW,334,5.0,5.0,79,0.00,,,0.14,Wunderground v.1.15,2013-02-28 18:48:00,
2013-02-28 13:58:00,35.9,30.0,29.80,NW,325,4.0,9.0,79,0.00,,,0.14,Wunderground v.1.15,2013-02-28 18:58:00,
2013-02-28 14:08:00,35.8,29.9,29.80,NW,322,6.0,6.0,79,0.00,,,0.14,Wunderground v.1.15,2013-02-28 19:08:00,
2013-02-28 14:18:00,35.8,29.9,29.81,NW,325,6.0,6.0,79,0.00,,,0.15,Wunderground v.1.15,2013-02-28 19:18:00,
2013-02-28 14:28:00,35.8,29.9,29.81,NNW,334,6.0,6.0,79,0.00,,,0.15,Wunderground v.1.15,2013-02-28 19:28:00,
2013-02-28 14:38:00,35.6,29.7,29.81,NW,325,7.0,7.0,79,0.00,,,0.16,Wunderground v.1.15,2013-02-28 19:38:00,
2013-02-28 14:48:00,35.3,29.4,29.82,NW,325,7.0,7.0,79,0.00,,,0.16,Wunderground v.1.15,2013-02-28 19:48:00,
2013-02-28 14:58:00,35.0,29.1,29.82,NW,325,8.0,8.0,79,0.00,,,0.16,Wunderground v.1.15,2013-02-28 19:58:00,
2013-02-28 15:08:00,35.0,29.5,29.82,NW,314,7.0,8.0,80,0.00,,,0.16,Wunderground v.1.15,2013-02-28 20:08:00,
2013-02-28 15:18:00,34.9,29.4,29.83,NW,321,7.0,10.0,80,0.00,,,0.16,Wunderground v.1.15,2013-02-28 20:18:00,
2013-02-28 15:27:00,34.9,29.0,29.83,NNW,342,7.0,7.0,79,0.00,,,0.16,Wunderground v.1.15,2013-02-28 20:27:00,
2013-02-28 15:38:00,34.9,28.7,29.83,NW,304,8.0,8.0,78,0.00,,,0.17,Wunderground v.1.15,2013-02-28 20:38:00,
2013-02-28 15:47:00,34.9,29.0,29.84,NW,319,5.0,5.0,79,0.00,,,0.17,Wunderground v.1.15,2013-02-28 20:47:00,
2013-02-28 15:58:00,34.9,29.0,29.85,NW,322,6.0,6.0,79,0.00,,,0.17,Wunderground v.1.15,2013-02-28 20:58:00,
2013-02-28 16:08:00,34.9,29.0,29.85,NNW,348,6.0,7.0,79,0.00,,,0.17,Wunderground v.1.15,2013-02-28 21:08:00,
2013-02-28 16:17:00,34.9,29.0,29.85,North,355,4.0,4.0,79,0.00,,,0.17,Wunderground v.1.15,2013-02-28 21:17:00,
2013-02-28 16:28:00,34.7,28.9,29.85,NNW,337,5.0,6.0,79,0.00,,,0.17,Wunderground v.1.15,2013-02-28 21:28:00,
2013-02-28 16:38:00,34.7,28.9,29.85,NNW,327,4.0,4.0,79,0.00,,,0.17,Wunderground v.1.15,2013-02-28 21:38:00,
2013-02-28 16:47:00,34.6,28.8,29.86,North,5,5.0,5.0,79,0.00,,,0.17,Wunderground v.1.15,2013-02-28 21:47:00,
2013-02-28 16:58:00,34.3,28.5,29.86,NNW,339,6.0,6.0,79,0.00,,,0.17,Wunderground v.1.15,2013-02-28 21:58:00,
2013-02-28 17:07:00,34.1,28.3,29.86,NW,315,5.0,10.0,79,0.00,,,0.17,Wunderground v.1.15,2013-02-28 22:07:00,
2013-02-28 17:18:00,34.1,28.6,29.86,NNW,331,5.0,5.0,80,0.00,,,0.17,Wunderground v.1.15,2013-02-28 22:18:00,
2013-02-28 17:28:00,34.0,28.2,29.87,NNW,331,5.0,5.0,79,0.00,,,0.17,Wunderground v.1.15,2013-02-28 22:28:00,
2013-02-28 17:38:00,33.8,28.3,29.87,NNW,327,4.0,4.0,80,0.00,,,0.17,Wunderground v.1.15,2013-02-28 22:38:00,
2013-02-28 17:48:00,33.7,28.5,29.88,NW,325,3.0,4.0,81,0.00,,,0.17,Wunderground v.1.15,2013-02-28 22:48:00,
2013-02-28 17:57:00,33.4,28.2,29.89,NW,322,5.0,8.0,81,0.00,,,0.17,Wunderground v.1.15,2013-02-28 22:57:00,
2013-02-28 18:08:00,33.1,28.2,29.89,NW,325,6.0,6.0,82,0.00,,,0.17,Wunderground v.1.15,2013-02-28 23:08:00,
2013-02-28 18:18:00,32.8,28.2,29.90,NNW,331,5.0,5.0,83,0.00,,,0.17,Wunderground v.1.15,2013-02-28 23:18:00,
2013-02-28 18:28:00,32.7,28.1,29.91,NNW,338,6.0,6.0,83,0.00,,,0.17,Wunderground v.1.15,2013-02-28 23:28:00,
2013-02-28 18:37:00,32.5,27.9,29.91,NNW,327,6.0,6.0,83,0.00,,,0.17,Wunderground v.1.15,2013-02-28 23:37:00,
2013-02-28 18:48:00,32.4,27.8,29.91,NW,319,6.0,6.0,83,0.00,,,0.17,Wunderground v.1.15,2013-02-28 23:48:00,
2013-02-28 18:58:00,32.2,27.6,29.91,NW,325,5.0,7.0,83,0.00,,,0.17,Wunderground v.1.15,2013-02-28 23:58:00,
2013-02-28 19:08:00,32.1,27.2,29.91,NNW,330,5.0,5.0,82,0.00,,,0.17,Wunderground v.1.15,2013-03-01 00:08:00,
2013-02-28 19:18:00,32.1,27.2,29.92,NNW,328,4.0,4.0,82,0.00,,,0.17,Wunderground v.1.15,2013-03-01 00:18:00,
2013-02-28 19:27:00,32.1,27.2,29.93,NNW,328,4.0,4.0,82,0.00,,,0.17,Wunderground v.1.15,2013-03-01 00:27:00,
2013-02-28 19:38:00,31.9,27.0,29.93,NNW,327,5.0,5.0,82,0.00,,,0.17,Wunderground v.1.15,2013-03-01 00:38:00,
2013-02-28 19:48:00,31.9,27.0,29.93,NNW,339,4.0,7.0,82,0.00,,,0.17,Wunderground v.1.15,2013-03-01 00:48:00,
2013-02-28 19:57:00,31.9,27.0,29.94,NNW,329,3.0,3.0,82,0.00,,,0.17,Wunderground v.1.15,2013-03-01 00:57:00,
2013-02-28 20:07:00,31.8,26.9,29.94,NNW,340,4.0,4.0,82,0.00,,,0.17,Wunderground v.1.15,2013-03-01 01:07:00,
2013-02-28 20:18:00,31.6,26.7,29.94,NW,320,4.0,5.0,82,0.00,,,0.17,Wunderground v.1.15,2013-03-01 01:18:00,
2013-02-28 20:28:00,31.6,26.7,29.94,NNW,335,3.0,3.0,82,0.00,,,0.17,Wunderground v.1.15,2013-03-01 01:28:00,
2013-02-28 20:37:00,31.6,26.7,29.94,NNW,348,3.0,3.0,82,0.00,,,0.17,Wunderground v.1.15,2013-03-01 01:37:00,
2013-02-28 20:48:00,31.5,26.6,29.94,North,5,3.0,3.0,82,0.00,,,0.17,Wunderground v.1.15,2013-03-01 01:48:00,
2013-02-28 20:58:00,31.5,26.6,29.96,North,9,3.0,4.0,82,0.00,,,0.17,Wunderground v.1.15,2013-03-01 01:58:00,
2013-02-28 21:08:00,31.3,26.1,29.96,North,5,3.0,5.0,81,0.00,,,0.17,Wunderground v.1.15,2013-03-01 02:08:00,
2013-02-28 21:17:00,31.2,25.7,29.96,North,5,5.0,5.0,80,0.00,,,0.17,Wunderground v.1.15,2013-03-01 02:17:00,
2013-02-28 21:28:00,31.0,25.6,29.96,North,360,4.0,4.0,80,0.00,,,0.17,Wunderground v.1.15,2013-03-01 02:28:00,
2013-02-28 21:38:00,30.9,25.5,29.96,North,355,4.0,4.0,80,0.00,,,0.17,Wunderground v.1.15,2013-03-01 02:38:00,
2013-02-28 21:47:00,30.7,25.0,29.97,NNW,333,6.0,6.0,79,0.00,,,0.17,Wunderground v.1.15,2013-03-01 02:47:00,
2013-02-28 21:58:00,30.6,24.9,29.97,North,355,6.0,9.0,79,0.00,,,0.17,Wunderground v.1.15,2013-03-01 02:58:00,
2013-02-28 22:08:00,30.6,25.2,29.97,North,360,5.0,5.0,80,0.00,,,0.17,Wunderground v.1.15,2013-03-01 03:08:00,
2013-02-28 22:18:00,30.4,25.0,29.97,NNW,332,4.0,5.0,80,0.00,,,0.17,Wunderground v.1.15,2013-03-01 03:18:00,
2013-02-28 22:28:00,30.3,24.9,29.97,North,349,5.0,5.0,80,0.00,,,0.17,Wunderground v.1.15,2013-03-01 03:28:00,
2013-02-28 22:38:00,30.3,25.2,29.97,North,351,3.0,4.0,81,0.00,,,0.17,Wunderground v.1.15,2013-03-01 03:38:00,
2013-02-28 22:47:00,30.3,25.2,29.98,North,355,4.0,4.0,81,0.00,,,0.17,Wunderground v.1.15,2013-03-01 03:47:00,
2013-02-28 22:58:00,30.3,25.2,29.98,North,9,3.0,3.0,81,0.00,,,0.17,Wunderground v.1.15,2013-03-01 03:58:00,
2013-02-28 23:07:00,30.1,25.0,29.98,NNW,348,3.0,3.0,81,0.00,,,0.17,Wunderground v.1.15,2013-03-01 04:07:00,
2013-02-28 23:18:00,30.1,25.0,29.98,North,355,3.0,4.0,81,0.00,,,0.17,Wunderground v.1.15,2013-03-01 04:18:00,
2013-02-28 23:28:00,30.1,25.0,29.98,North,9,3.0,3.0,81,0.00,,,0.17,Wunderground v.1.15,2013-03-01 04:28:00,
2013-02-28 23:37:00,30.0,24.6,29.98,North,350,4.0,5.0,80,0.00,,,0.17,Wunderground v.1.15,2013-03-01 04:37:00,
2013-02-28 23:47:00,30.0,24.6,29.98,North,360,4.0,4.0,80,0.00,,,0.17,Wunderground v.1.15,2013-03-01 04:47:00,
2013-02-28 23:58:00,29.8,24.4,29.98,NNE,24,5.0,5.0,80,0.00,,,0.00,Wunderground v.1.15,2013-03-01 04:58:00,